EW0871 Weather Reports


time (UTC)temp
C
wind
direction
speed
KPH
gust
KPH
rain 1hr
cm
rain 24hr
cm
rain mn
cm
humidity
%
barometer
mb
20260906060510 20 0 0.0 1.6 0.00 0.00 0.00 94 1017.7
20260906060010 20 0 0.0 4.8 0.00 0.00 0.00 94 1017.7
20260906055511 20 20 3.2 4.8 0.00 0.00 0.00 94 1017.8
20260906055011 20 0 0.0 4.8 0.00 0.00 0.00 94 1017.7
20260906054510 20 11 1.6 4.8 0.00 0.00 0.00 94 1017.7
20260906054010 20 0 0.0 0.0 0.00 0.00 0.00 94 1017.8
20260906053009 20 0 0.0 0.0 0.00 0.00 0.00 94 1017.9
20260906052010 20 0 0.0 4.8 0.00 0.00 0.00 94 1018.1
20260906051510 20 11 1.6 4.8 0.00 0.00 0.00 94 1018.1
20260906051010 20 0 0.0 0.0 0.00 0.00 0.00 94 1018.1
20260906050510 20 0 0.0 0.0 0.00 0.00 0.00 94 1018.2
20260906045511 20 0 0.0 0.0 0.00 0.00 0.00 93 1018.1
20260906045009 21 0 0.0 0.0 0.00 0.00 0.00 93 1018.3
20260906044510 21 0 0.0 0.0 0.00 0.00 0.00 93 1018.3
20260906043511 21 0 0.0 0.0 0.00 0.00 0.00 93 1018.5
20260906043011 21 0 0.0 3.2 0.00 0.00 0.00 93 1018.4
20260906042510 21 0 0.0 3.2 0.00 0.00 0.00 93 1018.4
20260906042010 21 359 0.0 3.2 0.00 0.00 0.00 93 1018.3
20260906041510 21 0 0.0 0.0 0.00 0.00 0.00 93 1018.2
20260906041009 21 0 0.0 0.0 0.00 0.00 0.00 93 1018.3
20260906040511 21 0 0.0 0.0 0.00 0.00 0.00 93 1018.4
20260906035010 21 0 0.0 0.0 0.00 0.00 0.00 93 1018.4
20260906034511 21 0 0.0 0.0 0.00 0.00 0.00 93 1018.6
20260906034010 21 0 0.0 0.0 0.00 0.00 0.00 93 1018.4
20260906033510 21 0 0.0 0.0 0.00 0.00 0.00 93 1018.5
20260906033011 21 0 0.0 0.0 0.00 0.00 0.00 93 1018.5
20260906032509 21 0 0.0 0.0 0.00 0.00 0.00 93 1018.8
20260906032010 21 0 0.0 0.0 0.00 0.00 0.00 92 1018.7
20260906031510 21 0 0.0 0.0 0.00 0.00 0.00 92 1018.8
20260906031010 21 0 0.0 0.0 0.00 0.00 0.00 92 1018.7
20260906025509 21 0 0.0 0.0 0.00 0.00 0.00 92 1018.8
20260906025011 21 0 0.0 0.0 0.00 0.00 0.00 92 1018.7
20260906024510 21 0 0.0 0.0 0.00 0.00 0.00 92 1018.8
20260906024009 21 0 0.0 0.0 0.00 0.00 0.00 91 1018.7
20260906023510 22 0 0.0 0.0 0.00 0.00 0.00 91 1018.7
20260906023010 22 0 0.0 0.0 0.00 0.00 0.00 91 1018.6
20260906022510 22 0 0.0 0.0 0.00 0.00 0.00 91 1018.6
20260906021510 22 0 0.0 0.0 0.00 0.00 0.00 91 1018.4
20260906021010 22 0 0.0 0.0 0.00 0.00 0.00 90 1018.2
20260906020511 22 0 0.0 0.0 0.00 0.00 0.00 90 1018.0
20260906020010 22 0 0.0 0.0 0.00 0.00 0.00 90 1017.9
20260906015510 22 0 0.0 0.0 0.00 0.00 0.00 89 1018.0
20260906015011 22 0 0.0 0.0 0.00 0.00 0.00 89 1018.1
20260906014510 22 0 0.0 0.0 0.00 0.00 0.00 89 1018.0
20260906014010 22 0 0.0 0.0 0.00 0.00 0.00 89 1018.0
20260906013010 23 0 0.0 0.0 0.00 0.00 0.00 88 1018.3
20260906012510 23 0 0.0 0.0 0.00 0.00 0.00 88 1018.2
20260906011011 23 0 0.0 0.0 0.00 0.00 0.00 87 1017.9
20260906010510 23 0 0.0 0.0 0.00 0.00 0.00 87 1017.9
20260906010010 23 0 0.0 0.0 0.00 0.00 0.00 87 1017.9
20260906005509 23 0 0.0 0.0 0.00 0.00 0.00 86 1017.8
20260906005010 23 0 0.0 0.0 0.00 0.00 0.00 86 1017.8
20260906004510 23 0 0.0 0.0 0.00 0.00 0.00 86 1017.6
20260906004010 23 0 0.0 0.0 0.00 0.00 0.00 85 1017.6
20260906003509 23 0 0.0 0.0 0.00 0.00 0.00 85 1017.5
20260906003010 24 0 0.0 0.0 0.00 0.00 0.00 85 1017.4
20260906002510 24 0 0.0 0.0 0.00 0.00 0.00 84 1017.5
20260906002010 24 0 0.0 0.0 0.00 0.00 0.00 84 1017.3
20260906001010 25 0 0.0 0.0 0.00 0.00 0.00 83 1017.2
20260905235510 25 0 0.0 0.0 0.00 0.00 0.00 81 1017.0
20260905234510 26 0 0.0 0.0 0.00 0.00 0.00 79 1016.9
20260905234011 26 0 0.0 3.2 0.00 0.00 0.00 78 1016.9
20260905233511 26 0 0.0 3.2 0.00 0.00 0.00 76 1016.9
20260905233009 26 156 0.0 3.2 0.00 0.00 0.00 75 1017.1
20260905232510 27 0 0.0 0.0 0.00 0.00 0.00 73 1017.0
20260905232010 27 0 0.0 0.0 0.00 0.00 0.00 72 1016.9
20260905231509 27 0 0.0 1.6 0.00 0.00 0.00 71 1016.8
20260905231010 27 0 0.0 1.6 0.00 0.00 0.00 71 1016.9
20260905230510 27 0 0.0 0.0 0.00 0.00 0.00 70 1016.9
20260905230010 27 0 0.0 3.2 0.00 0.00 0.00 69 1017.0
20260905225510 27 25 1.6 3.2 0.00 0.00 0.00 68 1016.9
20260905225009 27 0 0.0 3.2 0.00 0.00 0.00 68 1016.8
20260905224509 27 0 0.0 3.2 0.00 0.00 0.00 68 1016.8
20260905224010 28 9 1.6 3.2 0.00 0.00 0.00 68 1016.8
20260905223510 28 332 0.0 3.2 0.00 0.00 0.00 67 1016.8
20260905223010 28 311 0.0 3.2 0.00 0.00 0.00 66 1016.8
20260905222010 28 0 0.0 4.8 0.00 0.00 0.00 67 1017.0
20260905221511 28 24 1.6 4.8 0.00 0.00 0.00 66 1017.0
20260905221009 28 18 1.6 4.8 0.00 0.00 0.00 66 1016.9
20260905220011 28 16 1.6 16.1 0.00 0.00 0.00 67 1017.1
20260905215510 27 18 4.8 16.1 0.00 0.00 0.00 66 1017.2
20260905215010 28 24 3.2 8.0 0.00 0.00 0.00 67 1017.2
20260905214510 28 24 4.8 8.0 0.00 0.00 0.00 67 1017.2
20260905214010 28 23 4.8 8.0 0.00 0.00 0.00 67 1017.3
20260905213510 27 24 3.2 9.7 0.00 0.00 0.00 67 1017.4
20260905212510 27 28 3.2 6.4 0.00 0.00 0.00 68 1017.6
20260905212009 27 28 1.6 4.8 0.00 0.00 0.00 68 1017.8
20260905211510 27 17 3.2 4.8 0.00 0.00 0.00 68 1017.9
20260905211010 27 11 1.6 8.0 0.00 0.00 0.00 68 1017.9
20260905210509 27 4 3.2 8.0 0.00 0.00 0.00 67 1017.9
20260905210009 27 350 3.2 6.4 0.00 0.00 0.00 68 1017.9
20260905205510 27 346 0.0 4.8 0.00 0.00 0.00 67 1018.0
20260905204510 27 293 1.6 4.8 0.00 0.00 0.00 68 1017.9
20260905204010 26 0 0.0 8.0 0.00 0.00 0.00 68 1017.7
20260905203510 26 0 0.0 8.0 0.00 0.00 0.00 68 1017.8
20260905203009 26 0 0.0 4.8 0.00 0.00 0.00 68 1017.9
20260905202510 26 323 0.0 4.8 0.00 0.00 0.00 68 1017.9
20260905202010 26 4 3.2 8.0 0.00 0.00 0.00 70 1018.0
20260905201509 26 27 3.2 8.0 0.00 0.00 0.00 70 1018.1
20260905201010 26 26 1.6 9.7 0.00 0.00 0.00 71 1018.1
20260905200509 26 18 4.8 9.7 0.00 0.00 0.00 71 1018.1
20260905200009 26 13 3.2 8.0 0.00 0.00 0.00 71 1018.3
20260905195510 26 14 4.8 6.4 0.00 0.00 0.00 70 1018.6
20260905195009 26 20 1.6 4.8 0.00 0.00 0.00 71 1018.5
20260905194010 26 359 3.2 6.4 0.00 0.00 0.00 69 1018.5
20260905193009 25 0 0.0 0.0 0.00 0.00 0.00 71 1018.6
20260905192510 25 0 0.0 0.0 0.00 0.00 0.00 71 1018.7
20260905192010 25 0 0.0 0.0 0.00 0.00 0.00 70 1018.5
20260905191509 25 0 0.0 0.0 0.00 0.00 0.00 72 1018.5
20260905191010 26 0 0.0 0.0 0.00 0.00 0.00 71 1018.8
20260905190510 26 0 0.0 0.0 0.00 0.00 0.00 71 1018.8
20260905190009 26 0 0.0 3.2 0.00 0.00 0.00 72 1019.1
20260905185510 25 333 0.0 6.4 0.00 0.00 0.00 73 1019.2
20260905185010 25 0 0.0 6.4 0.00 0.00 0.00 73 1019.4
20260905184009 25 0 0.0 4.8 0.00 0.00 0.00 74 1019.2
20260905183510 25 42 0.0 4.8 0.00 0.00 0.00 73 1019.2
20260905182510 25 9 0.0 17.7 0.00 0.00 0.00 71 1019.6
20260905182010 25 7 6.4 22.5 0.00 0.00 0.00 70 1019.3
20260905181509 25 7 6.4 22.5 0.00 0.00 0.00 72 1019.2
20260905181010 25 8 4.8 14.5 0.00 0.00 0.00 77 1019.3
20260905180510 25 0 0.0 0.0 0.00 0.00 0.00 77 1018.8
20260905180011 25 0 0.0 0.0 0.00 0.00 0.00 76 1019.0
20260905175009 25 0 0.0 6.4 0.00 0.00 0.00 76 1018.6
20260905174510 26 34 3.2 9.7 0.00 0.00 0.00 74 1018.5
20260905174009 26 26 3.2 11.3 0.00 0.00 0.00 73 1018.5
20260905173509 27 26 4.8 16.1 0.00 0.00 0.00 71 1018.8
20260905172510 28 23 11.3 17.7 0.00 0.00 0.00 67 1019.2
20260905172010 29 18 11.3 16.1 0.00 0.00 0.00 64 1019.2
20260905171509 30 18 9.7 16.1 0.00 0.00 0.00 62 1019.0
20260905171010 30 22 6.4 14.5 0.00 0.00 0.00 61 1018.9
20260905170510 30 24 8.0 16.1 0.00 0.00 0.00 59 1018.7
20260905170010 31 22 9.7 16.1 0.00 0.00 0.00 57 1018.9
20260905165009 31 16 8.0 20.9 0.00 0.00 0.00 61 1019.1
20260905164509 31 16 11.3 20.9 0.00 0.00 0.00 61 1019.1
20260905163009 30 17 9.7 17.7 0.00 0.00 0.00 63 1019.4
20260905162510 30 18 9.7 16.1 0.00 0.00 0.00 65 1019.4
20260905162009 30 18 8.0 16.1 0.00 0.00 0.00 66 1019.6
20260905161009 29 14 6.4 22.5 0.00 0.00 0.00 67 1019.8
20260905160509 30 14 9.7 22.5 0.00 0.00 0.00 66 1019.8
20260905160010 30 11 8.0 16.1 0.00 0.00 0.00 67 1019.8
20260905155510 30 13 9.7 16.1 0.00 0.00 0.00 66 1019.8
20260905155009 30 12 6.4 11.3 0.00 0.00 0.00 66 1019.9
20260905154010 30 12 6.4 11.3 0.00 0.00 0.00 67 1019.9
20260905153509 30 7 0.0 11.3 0.00 0.00 0.00 69 1019.8
20260905153010 30 7 6.4 11.3 0.00 0.00 0.00 69 1019.9
20260905152510 29 12 4.8 11.3 0.00 0.00 0.00 72 1019.9
20260905152010 29 16 4.8 8.0 0.00 0.00 0.00 72 1019.8
20260905151510 29 19 3.2 6.4 0.00 0.00 0.00 72 1019.8
20260905151010 28 23 4.8 8.0 0.00 0.00 0.00 71 1019.9
20260905150510 28 16 3.2 8.0 0.00 0.00 0.00 70 1019.9
20260905150009 28 6 3.2 8.0 0.00 0.00 0.00 71 1019.8
20260905145510 28 325 1.6 6.4 0.00 0.00 0.00 73 1019.9
20260905145010 28 0 0.0 6.4 0.00 0.00 0.00 77 1019.9
20260905144509 27 10 0.0 4.8 0.00 0.00 0.00 77 1019.8
20260905144010 27 0 0.0 4.8 0.00 0.00 0.00 78 1019.9
20260905143510 27 0 0.0 1.6 0.00 0.00 0.00 80 1019.9
20260905143009 27 23 0.0 6.4 0.00 0.00 0.00 81 1019.9
20260905142509 26 0 0.0 6.4 0.00 0.00 0.00 82 1020.0
20260905142010 26 19 1.6 6.4 0.00 0.00 0.00 85 1020.0
20260905141510 25 23 3.2 6.4 0.00 0.00 0.00 85 1020.1
20260905141011 25 20 1.6 4.8 0.00 0.00 0.00 88 1020.1
20260905140509 25 342 0.0 1.6 0.00 0.00 0.00 90 1020.2
20260905140009 24 0 0.0 1.6 0.00 0.00 0.00 92 1020.2
20260905135510 23 0 0.0 4.8 0.00 0.00 0.00 93 1020.2
20260905135010 23 0 0.0 4.8 0.00 0.00 0.00 94 1020.4
20260905134509 23 0 0.0 3.2 0.00 0.00 0.00 94 1020.4
20260905134010 22 0 0.0 3.2 0.00 0.00 0.00 95 1020.3
20260905133510 22 18 0.0 1.6 0.00 0.00 0.00 95 1020.2
20260905133010 22 334 0.0 1.6 0.00 0.00 0.00 95 1020.2
20260905131510 21 0 0.0 0.0 0.00 0.00 0.00 96 1020.5
20260905131009 21 0 0.0 0.0 0.00 0.00 0.00 96 1020.5
20260905125010 20 0 0.0 0.0 0.00 0.00 0.00 96 1020.5
20260905124510 20 0 0.0 0.0 0.00 0.00 0.00 96 1020.5
20260905124010 20 0 0.0 0.0 0.00 0.00 0.00 96 1020.4
20260905123509 20 0 0.0 0.0 0.00 0.00 0.00 96 1020.3
20260905122009 20 0 0.0 0.0 0.00 0.00 0.00 95 1020.3
20260905121509 19 0 0.0 0.0 0.00 0.00 0.00 95 1020.2
20260905121009 19 0 0.0 0.0 0.00 0.00 0.00 95 1020.1
20260905120509 19 0 0.0 0.0 0.00 0.00 0.00 95 1020.1
20260905120009 19 0 0.0 0.0 0.00 0.00 0.00 95 1020.1
20260905115510 19 0 0.0 0.0 0.00 0.00 0.00 95 1020.1
20260905115009 19 0 0.0 0.0 0.00 0.00 0.00 95 1020.0
20260905114011 19 0 0.0 0.0 0.00 0.00 0.00 95 1020.1
20260905113509 18 0 0.0 0.0 0.00 0.00 0.00 95 1020.0
20260905112509 18 0 0.0 0.0 0.00 0.00 0.00 95 1019.8
20260905112009 18 0 0.0 0.0 0.00 0.00 0.00 95 1019.7
20260905111509 18 0 0.0 0.0 0.00 0.00 0.00 95 1019.6
20260905110509 18 0 0.0 0.0 0.00 0.00 0.00 95 1019.5
20260905105510 18 0 0.0 0.0 0.00 0.00 0.00 95 1019.4
20260905105010 18 0 0.0 0.0 0.00 0.00 0.00 95 1019.4
20260905104009 19 0 0.0 0.0 0.00 0.00 0.00 95 1019.3
20260905103510 19 0 0.0 0.0 0.00 0.00 0.00 95 1019.2
20260905103009 19 0 0.0 0.0 0.00 0.00 0.00 95 1019.2
20260905102509 19 0 0.0 0.0 0.00 0.00 0.00 95 1019.2
20260905102009 19 0 0.0 0.0 0.00 0.00 0.00 95 1019.0
20260905100509 19 0 0.0 0.0 0.00 0.00 0.00 95 1019.0
20260905100010 19 0 0.0 0.0 0.00 0.00 0.00 95 1019.0
20260905095510 19 0 0.0 0.0 0.00 0.00 0.00 95 1019.1
20260905095010 19 0 0.0 0.0 0.00 0.00 0.00 95 1019.1
20260905094010 19 0 0.0 0.0 0.00 0.00 0.00 95 1019.0
20260905093509 20 0 0.0 0.0 0.00 0.00 0.00 95 1019.0
20260905093010 20 0 0.0 0.0 0.00 0.00 0.00 95 1019.0
20260905092009 20 0 0.0 0.0 0.00 0.00 0.00 95 1019.1
20260905091509 19 0 0.0 0.0 0.00 0.00 0.00 95 1019.1
20260905091011 19 0 0.0 0.0 0.00 0.00 0.00 95 1019.1
20260905090509 20 0 0.0 0.0 0.00 0.00 0.00 95 1019.2
20260905090010 20 0 0.0 0.0 0.00 0.00 0.00 94 1019.2
20260905085509 20 0 0.0 0.0 0.00 0.00 0.00 94 1019.2
20260905085009 20 0 0.0 0.0 0.00 0.00 0.00 95 1019.2
20260905084509 20 0 0.0 0.0 0.00 0.00 0.00 95 1019.4
20260905083509 20 0 0.0 0.0 0.00 0.00 0.00 94 1019.4
20260905083009 20 0 0.0 0.0 0.00 0.00 0.00 94 1019.5
20260905082010 20 0 0.0 0.0 0.00 0.00 0.00 94 1019.6
20260905081511 20 0 0.0 0.0 0.00 0.00 0.00 94 1019.6
20260905081009 20 0 0.0 0.0 0.00 0.00 0.00 94 1019.7
20260905080510 20 0 0.0 0.0 0.00 0.00 0.00 94 1019.6
20260905075509 20 0 0.0 0.0 0.00 0.00 0.00 94 1019.6
20260905075009 20 0 0.0 0.0 0.00 0.00 0.00 94 1019.6
20260905074510 20 0 0.0 0.0 0.00 0.00 0.00 94 1019.7
20260905073509 20 0 0.0 0.0 0.00 0.00 0.00 94 1019.7
20260905073009 20 0 0.0 0.0 0.00 0.00 0.00 94 1019.7
20260905072011 20 0 0.0 0.0 0.00 0.00 0.00 94 1019.9
20260905071509 20 0 0.0 0.0 0.00 0.00 0.00 94 1019.9
20260905071010 20 0 0.0 0.0 0.00 0.00 0.00 94 1019.9
20260905070009 21 0 0.0 0.0 0.00 0.00 0.00 94 1020.0
20260905065509 21 0 0.0 0.0 0.00 0.00 0.00 94 1020.1
20260905065009 21 0 0.0 0.0 0.00 0.00 0.00 94 1020.0
20260905064510 21 0 0.0 0.0 0.00 0.00 0.00 94 1020.0
20260905064008 21 0 0.0 0.0 0.00 0.00 0.00 94 1020.1
20260905063509 21 0 0.0 0.0 0.00 0.00 0.00 94 1020.1
20260905063009 21 0 0.0 0.0 0.00 0.00 0.00 94 1020.1
20260905062509 21 0 0.0 0.0 0.00 0.00 0.00 94 1020.2
20260905062009 21 0 0.0 0.0 0.00 0.00 0.00 94 1020.4
20260905061509 21 0 0.0 0.0 0.00 0.00 0.00 94 1020.4
20260905061009 21 0 0.0 0.0 0.00 0.00 0.00 94 1020.4